Location: Newark
(51.2000°N, 58.6167°E)
Time: 00:50:28
(UTC+00:00)

ISS - Pass Details

Date: 27 September 2020
Orbit: 417 x 420 km, 51.6° (Epoch: 27 October)

Event Time Altitude Azimuth Distance (km) Brightness Sun altitude
Rises 15:56:56 0° 280° (W) 2,371 1.5 -20.0°
Reaches altitude 10° 15:59:02 10° 280° (W) 1,506 0.2 -20.3°
Enters shadow 16:02:13 76° 260° (W) 438 -3.7 -20.7°
